This is the latest recevied weather packets stored in our database for station/object K5UBE. If no packets are shown the sender has not sent any weather packets the latest 10 day(s).
| Time | Temp. | Humidity | Pressure | Rain* | Wind** | Luminosity | Snow |
|---|---|---|---|---|---|---|---|
| 1778115166 | 22.22° C | 19% | 1014.6 hPa | 0 mm | - | - | - |
| 1778114863 | 22.22° C | 18% | 1014.5 hPa | 0 mm | - | - | - |
| 1778114561 | 22.78° C | 18% | 1014.7 hPa | 0 mm | - | - | - |
| 1778114256 | 22.78° C | 18% | 1014.5 hPa | 0 mm | - | - | - |
| 1778113952 | 22.78° C | 17% | 1014.5 hPa | 0 mm | - | - | - |
| 1778113648 | 23.89° C | 16% | 1014.4 hPa | 0 mm | - | - | - |
| 1778113345 | 23.33° C | 17% | 1014.5 hPa | 0 mm | - | - | - |
| 1778113041 | 22.78° C | 19% | 1014.4 hPa | 0 mm | - | - | - |
| 1778112739 | 23.33° C | 18% | 1014.2 hPa | 0 mm | - | - | - |
| 1778112435 | 23.89° C | 17% | 1014.1 hPa | 0 mm | - | - | - |
| 1778112130 | 24.44° C | 16% | 1014 hPa | 0 mm | - | - | - |
| 1778111828 | 22.78° C | 18% | 1014.4 hPa | 0 mm | - | - | - |
| 1778111523 | 22.78° C | 19% | 1014.1 hPa | 0 mm | - | - | - |
| 1778111220 | 22.78° C | 18% | 1014.1 hPa | 0 mm | - | - | - |
| 1778110917 | 23.89° C | 16% | 1013.9 hPa | 0 mm | - | - | - |
| 1778110615 | 24.44° C | 16% | 1014 hPa | 0 mm | - | - | - |
| 1778110311 | 24.44° C | 15% | 1014.2 hPa | 0 mm | - | - | - |
| 1778110007 | 23.89° C | 16% | 1014.2 hPa | 0 mm | - | - | - |
| 1778109703 | 23.89° C | 14% | 1014.1 hPa | 0 mm | - | - | - |
| 1778109400 | 24.44° C | 13% | 1013.9 hPa | 0 mm | - | - | - |
| 1778109099 | 25° C | 13% | 1014.1 hPa | 0 mm | - | - | - |
| 1778108795 | 24.44° C | 13% | 1013.9 hPa | 0 mm | - | - | - |
| 1778108492 | 25.56° C | 13% | 1013.8 hPa | 0 mm | - | - | - |
| 1778108189 | 25.56° C | 13% | 1014 hPa | 0 mm | - | - | - |
| 1778107885 | 24.44° C | 14% | 1014 hPa | 0 mm | - | - | - |
* Rain latest hour (hover to see other rain measurements)
** Current wind speed in m/s (hover to see current wind gust speed)